Location: Newark
(48.2308°N, 120.8549°W)
Time: 01:47:36
(UTC+00:00)

FENGYUN 1C DEB - Pass Details

Date: 06 February 2022
Orbit: 822 x 948 km, 99.2° (Epoch: 28 May)

Event Time Altitude Azimuth Distance (km) Brightness Sun altitude
Rises 04:53:34 0° 212° (SSW) 3,610 ? -37.2°
Reaches altitude 10° 04:56:57 10° 231° (SW) 2,662 ? -37.7°
Maximum altitude 05:00:45 17° 271° (W) 2,170 ? -38.3°
Drops below altitude 10° 05:04:32 10° 312° (NW) 2,639 ? -38.9°
Sets 05:07:54 0° 331° (NNW) 3,565 ? -39.4°
